EHI
16 19 22 24 25 26 26 28 27 23 18 16 16 16 13 10 8 7 8 8 6 6 8 9 10 9 7 5 4 3 3 4 5 3 1 1 2 3 4 4 5 4 3
14 17 20 22 24 25 26 28 28 25 22 21 19 17 16 13 10 10 11 10 9 9 10 11 11 11 8 6 4 4 4 4 5 4 1 0 1 2 3 4 4 4 4
12 13 14 16 18 21 24 26 29 31 31 30 26 22 20 17 14 13 12 11 12 12 13 12 11 11 9 7 5 4 5 4 4 4 3 1 1 1 2 3 3 3 3
11 9 8 10 13 16 20 26 34 38 40 38 32 27 25 22 20 17 15 13 12 11 12 12 11 11 10 8 6 4 5 5 4 4 5 4 2 1 1 2 2 1 1
10 8 6 7 11 14 19 28 37 43 44 42 37 32 29 27 25 22 20 16 13 12 11 11 12 12 11 10 7 6 6 6 5 5 6 6 4 1 0 1 1 0 0
10 8 6 6 9 14 20 27 35 41 43 43 39 35 33 31 26 23 20 16 13 12 11 11 13 12 10 10 9 9 9 8 7 6 5 6 4 2 1 1 0 0 0
14 11 8 8 9 13 19 26 32 37 40 40 38 35 33 30 26 20 15 12 10 10 10 11 12 11 9 9 9 10 10 10 9 6 4 4 4 4 4 3 1 0 0
17 14 12 12 11 13 18 24 31 36 38 38 34 32 30 27 23 17 12 11 9 7 7 9 10 9 7 6 7 8 10 10 8 4 2 3 3 5 6 5 4 2 1
16 15 14 13 13 14 18 22 28 33 35 34 29 25 24 23 19 15 12 10 9 7 6 7 8 7 5 4 4 6 9 10 7 3 2 2 3 4 6 6 7 6 4
17 16 14 14 14 17 19 20 23 25 27 26 22 19 18 17 16 14 11 9 7 6 5 6 6 5 4 3 3 5 8 10 9 6 4 4 4 5 6 7 8 8 7
20 19 17 16 17 18 17 17 19 21 21 19 18 17 16 14 14 13 10 8 6 5 4 4 4 4 4 4 3 5 8 10 9 7 6 6 5 5 6 8 8 8 7
20 19 18 19 20 18 14 14 18 20 19 17 18 17 14 13 13 10 8 7 6 5 4 3 4 5 5 4 3 5 8 9 8 7 7 7 6 5 5 7 8 8 7
20 19 19 20 20 18 15 14 16 17 17 17 18 16 14 13 12 9 7 6 6 6 6 5 5 5 5 4 3 5 8 8 8 8 8 7 6 6 6 7 8 8 7
19 20 21 21 20 19 18 16 16 16 16 16 15 14 13 12 10 8 7 6 6 6 7 7 5 4 3 3 4 5 7 7 7 9 9 8 7 7 7 7 8 8 7
17 18 19 20 20 20 21 19 18 16 16 14 13 12 11 10 8 7 7 7 6 6 6 5 4 3 2 2 4 5 5 5 6 10 11 9 7 5 6 6 6 6 6
16 16 15 17 20 21 21 21 19 16 14 12 11 11 10 8 6 6 7 8 7 6 4 3 3 3 2 1 1 2 3 4 6 10 10 9 6 3 3 3 2 3 5
14 14 14 17 20 21 20 20 18 15 11 9 9 9 9 7 5 5 7 9 9 7 5 3 3 4 3 1 0 1 2 4 7 9 9 8 6 5 5 3 2 2 3
14 13 15 19 21 20 19 19 16 12 8 7 7 8 8 6 4 5 6 7 8 8 6 3 2 2 1 0 0 1 3 5 7 7 6 6 6 6 6 5 4 3 3
14 15 17 21 21 18 19 19 15 9 6 5 6 6 6 4 3 3 3 4 6 6 6 3 1 1 1 0 0 1 3 6 6 5 4 3 4 4 4 4 4 4 4
16 16 19 21 21 18 18 18 14 9 5 3 4 4 3 2 1 1 2 4 5 5 4 3 2 2 1 0 0 0 2 5 5 4 3 2 2 1 1 2 3 3 3
18 18 19 20 19 17 17 17 14 9 4 1 2 2 2 1 1 2 4 6 5 4 3 3 3 3 2 0 0 0 1 3 4 3 3 2 1 0 0 1 2 1 1
20 20 20 19 17 15 15 16 14 9 4 1 1 1 1 2 1 2 5 6 5 3 2 2 3 3 2 1 0 0 0 1 2 3 3 2 1 0 0 0 0 0 0
20 20 18 16 15 13 12 12 10 7 4 2 2 1 1 2 3 3 3 3 3 2 1 2 2 3 3 1 0 0 0 0 1 2 1 1 0 0 0 0 0 0 0
18 17 14 13 12 10 9 8 7 5 4 3 2 1 1 2 3 3 2 1 1 0 1 2 2 2 2 2 1 1 0 0 0 0 0 0 0 0 0 0 0 0 0
16 14 13 12 10 9 7 6 5 5 4 3 3 1 0 1 2 2 1 0 0 0 1 2 2 1 1 2 2 1 1 1 0 0 0 0 0 0 1 1 0 0 0
14 14 14 12 10 9 7 5 4 5 5 4 3 2 1 0 1 1 0 0 0 0 0 1 1 0 0 1 1 1 1 1 0 0 1 1 1 1 2 2 1 0 0
Wind_Speed
5 5 5 5 6 6 6 6 6 5 4 3 3 2 2 1 1 1 0 0 1 1 1 2 0 1 1 2 2 2 1 1 1 2 1 1 1 0 0 1 1 1 1
6 5 5 5 6 6 6 7 6 5 5 4 3 2 1 1 1 1 1 0 1 2 1 1 1 0 0 1 1 2 2 1 1 3 3 2 2 1 1 1 1 1 1
6 6 6 6 6 6 6 5 6 6 6 5 4 3 2 1 1 1 1 0 1 1 1 1 1 1 1 0 1 2 2 2 1 2 3 3 2 1 2 1 1 1 1
6 6 6 6 6 6 7 6 7 7 6 6 5 4 3 2 1 1 1 1 0 1 1 1 1 1 1 1 2 1 2 3 2 1 2 3 3 3 1 1 1 0 1
5 5 6 6 6 6 6 6 6 6 6 6 6 5 3 2 1 1 1 1 1 0 1 1 1 1 1 1 2 1 3 2 3 2 2 2 2 3 3 2 1 0 0
4 4 5 5 6 6 6 6 7 6 6 6 5 5 4 3 2 2 1 1 0 0 0 0 0 1 1 1 2 2 2 2 3 3 2 2 2 2 2 2 2 2 1
4 4 5 5 6 6 6 7 7 6 5 5 5 4 4 4 4 3 2 1 1 0 0 1 1 1 1 1 1 1 2 1 2 3 3 2 2 3 2 3 2 3 2
4 4 5 5 6 6 7 7 7 6 6 5 4 4 4 3 2 2 1 1 1 1 1 1 1 1 1 1 1 1 1 1 2 2 2 2 2 2 2 2 3 3 2
4 4 4 4 5 6 6 7 7 6 6 5 4 3 3 2 1 2 2 1 1 1 0 0 1 1 1 1 2 1 1 1 1 1 2 2 1 2 2 2 3 3 3
4 4 4 4 4 5 6 6 6 6 5 5 4 3 3 2 2 1 1 1 1 1 0 0 0 1 0 1 2 1 1 1 1 1 1 2 2 1 2 2 2 2 3
4 5 4 4 5 5 5 5 5 5 4 4 3 3 3 2 2 2 2 2 1 1 1 1 1 0 0 0 1 2 1 1 1 1 1 2 3 2 2 2 2 2 2
4 5 5 5 5 5 5 4 4 4 4 3 3 3 2 2 1 1 2 2 2 2 1 1 1 1 1 1 1 2 1 1 1 1 2 2 2 2 2 2 2 2 2
4 5 5 4 4 4 4 4 3 3 3 3 3 3 2 2 1 1 1 2 2 2 2 2 1 1 1 1 2 2 2 2 2 2 2 2 2 3 2 3 3 3 2
4 4 4 4 4 4 4 3 3 3 2 2 2 3 2 2 2 1 2 2 2 2 2 2 1 1 1 1 2 2 2 2 2 2 2 2 3 3 3 3 3 3 3
4 4 4 4 4 4 3 3 3 2 2 2 3 2 3 2 2 2 2 2 2 3 2 2 2 1 1 2 3 3 2 2 2 2 2 1 1 2 3 3 3 3 3
4 4 4 4 4 4 3 3 3 2 2 2 2 2 3 3 3 3 3 2 2 2 2 2 2 1 1 2 2 4 2 2 2 2 2 2 2 2 3 2 3 4 4
4 4 4 4 4 3 3 3 2 2 2 2 2 3 3 3 3 3 3 3 3 3 2 3 2 1 0 1 1 3 3 2 2 3 2 2 0 2 2 3 5 4 4
4 5 4 4 4 3 3 3 2 3 3 3 3 3 3 3 3 3 3 3 3 3 3 3 2 2 1 1 2 4 4 2 2 3 3 3 2 1 3 3 2 3 3
2 3 4 4 4 4 3 3 3 3 3 3 2 2 3 3 3 3 3 3 3 3 4 3 3 3 2 2 2 5 4 2 2 3 2 3 2 1 3 4 3 3 3
2 3 3 4 4 4 4 4 3 3 3 2 2 2 2 3 3 3 3 3 3 4 4 3 3 3 2 2 2 4 4 2 2 2 2 2 2 1 2 4 4 4 3
3 3 4 4 4 4 4 4 3 3 2 2 2 2 3 3 3 2 2 3 3 3 3 3 3 3 3 3 4 3 4 3 3 2 2 1 3 2 3 5 4 4 5
3 4 4 4 4 4 4 4 3 2 2 2 2 2 3 3 3 3 3 3 3 4 4 3 3 3 3 2 3 5 5 5 4 3 2 0 3 3 3 3 3 4 5
3 3 4 4 4 4 4 3 2 2 2 2 2 2 3 3 3 3 3 3 3 3 2 3 2 2 2 2 5 6 6 6 4 2 1 1 3 4 4 5 5 4 3
2 3 4 4 3 3 3 3 2 2 2 2 2 2 3 3 3 3 3 3 2 2 2 2 2 1 1 1 1 2 4 5 5 3 3 5 6 5 4 3 4 3 2
2 3 3 3 3 3 3 3 2 2 3 3 2 3 3 3 2 2 1 2 1 1 2 2 2 2 2 1 3 2 2 3 2 3 3 3 3 3 3 2 2 2 2
2 3 3 3 3 3 2 2 2 2 3 2 2 2 2 2 3 2 2 2 0 1 1 2 4 2 1 1 0 1 2 3 4 4 4 3 3 3 3 2 2 2 2
Wind_Direction
179 173 177 176 175 174 176 179 182 180 189 189 195 194 190 198 185 188 113 302 319 313 298 311 44 304 321 332 339 321 303 302 307 272 265 204 189 145 189 228 264 234 236
178 176 182 179 178 173 173 178 182 176 186 180 185 187 205 199 181 195 109 311 300 291 268 295 271 252 310 337 333 317 310 316 315 299 287 265 186 175 129 136 200 277 246
195 185 187 187 180 174 176 182 184 179 184 181 176 167 169 190 175 166 143 271 310 299 320 318 300 308 285 315 301 303 293 306 303 308 304 302 315 314 137 94 38 340 315
195 190 186 186 186 181 176 179 175 176 177 180 177 179 185 187 194 199 139 145 333 321 312 305 307 300 294 306 283 290 286 281 284 250 289 311 327 297 271 178 117 66 354
190 187 186 181 181 181 173 166 166 170 172 177 177 188 196 192 172 169 123 197 129 318 315 308 289 272 280 297 303 305 284 279 290 298 297 290 268 271 284 282 289 249 194
179 177 174 172 171 171 166 159 158 159 164 175 177 183 180 179 169 167 160 188 136 35 12 328 291 278 292 275 271 276 264 292 303 299 296 292 294 290 280 275 276 279 256
170 163 162 166 165 166 167 162 156 157 163 169 173 177 186 190 187 194 166 208 249 251 15 319 285 291 291 282 284 265 291 277 279 284 292 297 300 305 293 279 279 279 259
170 165 159 156 159 162 163 163 158 159 163 167 172 177 191 199 182 185 203 200 260 313 341 266 259 275 279 281 278 267 265 269 268 282 299 295 309 309 295 285 284 277 260
170 167 157 155 155 155 156 161 159 160 163 162 164 173 182 195 193 194 211 223 248 234 181 276 276 275 284 296 282 306 306 291 275 275 265 277 285 281 287 282 282 283 288
164 160 160 156 155 152 151 156 160 163 165 168 177 162 159 181 202 207 187 229 223 230 198 196 258 272 286 290 281 277 301 271 268 288 306 293 295 289 271 274 275 279 284
170 164 161 155 151 146 151 160 160 164 170 167 156 149 158 179 195 200 215 224 215 200 192 194 210 222 245 293 285 292 288 278 274 277 273 278 298 298 283 271 271 272 283
170 159 152 149 149 151 154 161 164 167 166 157 159 163 169 174 193 200 219 208 198 199 181 206 207 216 223 280 289 287 297 285 279 284 285 284 283 283 289 291 281 275 270
168 158 153 154 156 157 156 158 164 168 169 158 164 163 179 182 199 206 223 213 196 192 195 201 207 230 249 266 282 282 282 275 271 273 276 290 292 283 291 286 288 282 267
169 163 162 160 157 160 159 159 158 165 170 174 179 171 175 181 192 203 207 206 200 196 201 208 216 237 268 284 287 282 284 281 267 266 274 289 296 292 288 278 284 289 286
171 170 174 164 165 165 167 163 159 163 174 193 199 188 183 183 196 200 197 201 207 206 200 208 211 235 255 334 323 296 276 276 270 266 264 253 283 323 305 310 305 289 280
180 177 177 171 174 176 178 171 167 167 182 206 210 200 198 195 200 203 197 191 206 217 205 208 220 244 330 34 340 302 288 281 280 279 280 249 206 204 215 271 311 314 294
184 182 179 176 180 184 184 184 179 181 189 203 206 204 205 205 211 209 196 195 202 204 212 222 227 229 96 80 268 284 280 271 275 274 278 288 310 255 259 218 224 243 256
191 186 184 174 179 182 183 183 177 188 196 203 209 211 211 208 211 213 208 204 207 207 213 225 233 233 191 185 240 267 252 256 267 272 268 275 288 311 299 280 267 262 246
199 189 185 177 176 185 186 184 189 197 207 213 217 220 215 209 212 213 219 218 212 214 216 218 225 230 211 189 233 267 251 237 252 263 271 278 278 12 304 275 269 269 256
179 185 176 169 174 181 182 191 198 208 219 226 236 231 226 218 217 213 225 221 218 218 223 217 225 227 230 174 205 257 258 245 246 234 221 171 283 320 281 270 272 274 282
171 175 177 172 172 175 184 199 205 219 234 238 238 231 232 228 219 210 217 221 223 220 226 226 229 226 224 182 183 226 260 268 265 264 255 176 158 209 240 266 278 290 291
173 172 175 171 170 179 191 203 213 227 235 239 245 238 236 234 205 203 210 214 221 214 216 219 232 223 208 206 185 200 228 267 267 272 279 137 160 201 228 247 279 280 275
173 174 176 170 173 184 198 214 216 217 233 242 247 248 235 227 210 205 206 209 213 228 224 220 225 225 210 173 178 191 211 235 253 281 338 272 212 216 213 219 242 250 261
181 182 185 182 180 185 198 206 207 208 218 233 236 236 223 214 206 220 219 219 219 226 227 241 255 251 233 242 210 195 195 204 222 242 215 206 220 232 251 230 214 233 266
192 190 194 194 192 188 202 195 187 196 208 219 224 230 226 211 209 220 253 245 242 303 273 267 263 275 274 21 12 313 293 292 290 277 252 250 241 238 238 237 225 235 242
202 201 206 205 201 195 201 202 190 193 204 213 225 231 226 216 219 208 198 103 182 126 213 271 283 295 353 111 320 289 285 276 269 261 254 257 260 265 267 262 246 236 246